Time,TemperatureF,DewpointF,PressureIn,WindDirection,WindDirectionDegrees,WindSpeedMPH,WindSpeedGustMPH,Humidity,HourlyPrecipIn,Conditions,Clouds,dailyrainin,SolarRadiationWatts/m^2,SoftwareType,DateUTC
2013-03-02 00:02:00,35.0,33.0,-100.00,West,268,0.0,0.0,94,0.00,,,0.00,0.000000,,2013-03-02 05:02:00,
2013-03-02 00:12:00,35.0,33.0,-100.00,West,268,0.0,0.0,94,0.00,,,0.00,0.000000,,2013-03-02 05:12:00,
2013-03-02 00:32:00,34.0,33.0,-100.00,NNW,328,0.0,0.0,95,0.00,,,0.00,0.000000,,2013-03-02 05:32:00,
2013-03-02 00:42:00,34.0,33.0,-100.00,NNW,328,0.0,0.0,95,0.00,,,0.00,0.000000,,2013-03-02 05:42:00,
2013-03-02 00:52:00,34.0,33.0,-100.00,NNW,328,0.0,0.0,95,0.00,,,0.00,0.000000,,2013-03-02 05:52:00,
2013-03-02 01:02:00,34.0,33.0,-100.00,NNW,328,0.0,0.0,95,0.00,,,0.00,0.000000,,2013-03-02 06:02:00,
2013-03-02 01:11:00,34.0,33.0,-100.00,NNW,328,0.0,0.0,95,0.00,,,0.00,0.000000,,2013-03-02 06:11:00,
2013-03-02 01:32:00,33.0,32.0,-100.00,NW,319,0.0,0.0,95,0.00,,,0.00,0.000000,,2013-03-02 06:32:00,
2013-03-02 01:42:00,33.0,32.0,-100.00,NW,319,0.0,0.0,95,0.00,,,0.00,0.000000,,2013-03-02 06:42:00,
2013-03-02 01:52:00,33.0,32.0,-100.00,NW,319,0.0,0.0,95,0.00,,,0.00,0.000000,,2013-03-02 06:52:00,
2013-03-02 02:02:00,33.0,32.0,-100.00,NW,319,0.0,0.0,95,0.00,,,0.00,0.000000,,2013-03-02 07:02:00,
2013-03-02 02:11:00,33.0,32.0,-100.00,NW,319,0.0,0.0,95,0.00,,,0.00,0.000000,,2013-03-02 07:11:00,
2013-03-02 02:32:00,34.0,33.0,-100.00,West,268,0.0,2.0,95,0.00,,,0.00,0.000000,,2013-03-02 07:32:00,
2013-03-02 02:42:00,34.0,33.0,-100.00,West,268,0.0,2.0,95,0.00,,,0.00,0.000000,,2013-03-02 07:42:00,
2013-03-02 02:52:00,34.0,33.0,-100.00,West,268,0.0,2.0,95,0.00,,,0.00,0.000000,,2013-03-02 07:52:00,
2013-03-02 03:01:00,34.0,33.0,-100.00,West,268,0.0,2.0,95,0.00,,,0.00,0.000000,,2013-03-02 08:01:00,
2013-03-02 03:11:00,34.0,33.0,-100.00,West,268,0.0,2.0,95,0.00,,,0.00,0.000000,,2013-03-02 08:11:00,
2013-03-02 03:43:00,34.0,32.0,-100.00,NW,304,0.0,3.0,92,0.00,,,0.00,0.000000,,2013-03-02 08:43:00,
2013-03-02 03:52:00,34.0,32.0,-100.00,NW,304,0.0,3.0,92,0.00,,,0.00,0.000000,,2013-03-02 08:52:00,
2013-03-02 04:02:00,34.0,32.0,-100.00,NW,304,0.0,3.0,92,0.00,,,0.00,0.000000,,2013-03-02 09:02:00,
2013-03-02 04:11:00,34.0,32.0,-100.00,NW,304,0.0,3.0,92,0.00,,,0.00,0.000000,,2013-03-02 09:11:00,
2013-03-02 04:15:00,35.0,31.0,-100.00,NW,316,1.0,7.0,86,0.00,,,0.00,0.000000,,2013-03-02 09:15:00,
2013-03-02 04:32:00,35.0,31.0,-100.00,NW,316,1.0,7.0,86,0.00,,,0.00,0.000000,,2013-03-02 09:32:00,
2013-03-02 04:42:00,35.0,31.0,-100.00,NW,316,1.0,7.0,86,0.00,,,0.00,0.000000,,2013-03-02 09:42:00,
2013-03-02 04:52:00,35.0,31.0,-100.00,NW,316,1.0,7.0,86,0.00,,,0.00,0.000000,,2013-03-02 09:52:00,
2013-03-02 05:01:00,35.0,31.0,-100.00,NW,316,1.0,7.0,86,0.00,,,0.00,0.000000,,2013-03-02 10:01:00,
2013-03-02 05:43:00,34.0,30.0,-100.00,WNW,297,0.0,2.0,86,0.00,,,0.00,0.000000,,2013-03-02 10:43:00,
2013-03-02 05:52:00,34.0,30.0,-100.00,WNW,297,0.0,2.0,86,0.00,,,0.00,0.000000,,2013-03-02 10:52:00,
2013-03-02 06:01:00,34.0,30.0,-100.00,WNW,297,0.0,2.0,86,0.00,,,0.00,0.000000,,2013-03-02 11:01:00,
2013-03-02 06:11:00,34.0,30.0,-100.00,WNW,297,0.0,2.0,86,0.00,,,0.00,0.000000,,2013-03-02 11:11:00,
2013-03-02 06:32:00,32.0,29.0,-100.00,WNW,287,0.0,3.0,87,0.00,,,0.00,0.000000,,2013-03-02 11:32:00,
2013-03-02 06:42:00,32.0,29.0,-100.00,WNW,287,0.0,3.0,87,0.00,,,0.00,0.000000,,2013-03-02 11:42:00,
2013-03-02 06:52:00,32.0,29.0,-100.00,WNW,287,0.0,3.0,87,0.00,,,0.00,0.000000,,2013-03-02 11:52:00,
2013-03-02 07:02:00,32.0,29.0,-100.00,WNW,287,0.0,3.0,87,0.00,,,0.00,0.000000,,2013-03-02 12:02:00,
2013-03-02 07:11:00,32.0,29.0,-100.00,WNW,287,0.0,3.0,87,0.00,,,0.00,0.000000,,2013-03-02 12:11:00,
2013-03-02 07:33:00,32.0,28.0,-100.00,WNW,300,1.0,3.0,85,0.00,,,0.00,2.000000,,2013-03-02 12:33:00,
2013-03-02 07:43:00,32.0,28.0,-100.00,WNW,300,1.0,3.0,85,0.00,,,0.00,2.000000,,2013-03-02 12:43:00,
2013-03-02 07:53:00,32.0,28.0,-100.00,WNW,300,1.0,3.0,85,0.00,,,0.00,2.000000,,2013-03-02 12:53:00,
2013-03-02 08:01:00,32.0,28.0,-100.00,WNW,300,1.0,3.0,85,0.00,,,0.00,2.000000,,2013-03-02 13:01:00,
2013-03-02 08:11:00,32.0,28.0,-100.00,WNW,300,1.0,3.0,85,0.00,,,0.00,2.000000,,2013-03-02 13:11:00,
2013-03-02 08:42:00,39.0,29.0,-100.00,West,277,3.0,9.0,67,0.00,,,0.00,154.000000,,2013-03-02 13:42:00,
2013-03-02 08:53:00,39.0,29.0,-100.00,West,277,3.0,9.0,67,0.00,,,0.00,154.000000,,2013-03-02 13:53:00,
2013-03-02 09:01:00,39.0,29.0,-100.00,West,277,3.0,9.0,67,0.00,,,0.00,154.000000,,2013-03-02 14:01:00,
2013-03-02 09:11:00,39.0,29.0,-100.00,West,277,3.0,9.0,67,0.00,,,0.00,154.000000,,2013-03-02 14:11:00,
2013-03-02 09:32:00,44.0,29.0,-100.00,NW,320,5.0,12.0,56,0.00,,,0.00,409.000000,,2013-03-02 14:32:00,
2013-03-02 09:42:00,44.0,29.0,-100.00,NW,320,5.0,12.0,56,0.00,,,0.00,409.000000,,2013-03-02 14:42:00,
2013-03-02 09:52:00,44.0,29.0,-100.00,NW,320,5.0,12.0,56,0.00,,,0.00,409.000000,,2013-03-02 14:52:00,
2013-03-02 10:02:00,44.0,29.0,-100.00,NW,320,5.0,12.0,56,0.00,,,0.00,409.000000,,2013-03-02 15:02:00,
2013-03-02 10:11:00,44.0,29.0,-100.00,NW,320,5.0,12.0,56,0.00,,,0.00,409.000000,,2013-03-02 15:11:00,
2013-03-02 10:32:00,48.0,27.0,-100.00,NW,315,4.0,10.0,43,0.00,,,0.00,648.000000,,2013-03-02 15:32:00,
2013-03-02 10:42:00,48.0,27.0,-100.00,NW,315,4.0,10.0,43,0.00,,,0.00,648.000000,,2013-03-02 15:42:00,
2013-03-02 10:52:00,48.0,27.0,-100.00,NW,315,4.0,10.0,43,0.00,,,0.00,648.000000,,2013-03-02 15:52:00,
2013-03-02 11:02:00,48.0,27.0,-100.00,NW,315,4.0,10.0,43,0.00,,,0.00,648.000000,,2013-03-02 16:02:00,
2013-03-02 11:11:00,48.0,27.0,-100.00,NW,315,4.0,10.0,43,0.00,,,0.00,648.000000,,2013-03-02 16:11:00,
2013-03-02 11:32:00,49.0,26.0,-100.00,NW,309,4.0,11.0,40,0.00,,,0.00,760.000000,,2013-03-02 16:32:00,
2013-03-02 11:42:00,49.0,26.0,-100.00,NW,309,4.0,11.0,40,0.00,,,0.00,760.000000,,2013-03-02 16:42:00,
2013-03-02 11:52:00,49.0,26.0,-100.00,NW,309,4.0,11.0,40,0.00,,,0.00,760.000000,,2013-03-02 16:52:00,
2013-03-02 12:01:00,49.0,26.0,-100.00,NW,309,4.0,11.0,40,0.00,,,0.00,760.000000,,2013-03-02 17:01:00,
2013-03-02 12:12:00,49.0,26.0,-100.00,NW,309,4.0,11.0,40,0.00,,,0.00,760.000000,,2013-03-02 17:12:00,
2013-03-02 12:42:00,51.0,26.0,-100.00,WNW,303,5.0,12.0,38,0.00,,,0.00,867.000000,,2013-03-02 17:42:00,
2013-03-02 12:52:00,51.0,26.0,-100.00,WNW,303,5.0,12.0,38,0.00,,,0.00,867.000000,,2013-03-02 17:52:00,
2013-03-02 13:02:00,51.0,26.0,-100.00,WNW,303,5.0,12.0,38,0.00,,,0.00,867.000000,,2013-03-02 18:02:00,
2013-03-02 13:12:00,51.0,26.0,-100.00,WNW,303,5.0,12.0,38,0.00,,,0.00,867.000000,,2013-03-02 18:12:00,
2013-03-02 13:32:00,53.0,25.0,-100.00,NW,313,6.0,18.0,34,0.00,,,0.00,959.000000,,2013-03-02 18:32:00,
2013-03-02 13:42:00,53.0,25.0,-100.00,NW,313,6.0,18.0,34,0.00,,,0.00,959.000000,,2013-03-02 18:42:00,
2013-03-02 13:52:00,53.0,25.0,-100.00,NW,313,6.0,18.0,34,0.00,,,0.00,959.000000,,2013-03-02 18:52:00,
2013-03-02 14:02:00,53.0,25.0,-100.00,NW,313,6.0,18.0,34,0.00,,,0.00,959.000000,,2013-03-02 19:02:00,
2013-03-02 14:12:00,53.0,25.0,-100.00,NW,313,6.0,18.0,34,0.00,,,0.00,959.000000,,2013-03-02 19:12:00,
2013-03-02 14:32:00,54.0,26.0,-100.00,NW,321,4.0,12.0,33,0.00,,,0.00,838.000000,,2013-03-02 19:32:00,
2013-03-02 14:43:00,54.0,26.0,-100.00,NW,321,4.0,12.0,33,0.00,,,0.00,838.000000,,2013-03-02 19:43:00,
2013-03-02 14:52:00,54.0,26.0,-100.00,NW,321,4.0,12.0,33,0.00,,,0.00,838.000000,,2013-03-02 19:52:00,
2013-03-02 15:02:00,54.0,26.0,-100.00,NW,321,4.0,12.0,33,0.00,,,0.00,838.000000,,2013-03-02 20:02:00,
2013-03-02 15:11:00,54.0,26.0,-100.00,NW,321,4.0,12.0,33,0.00,,,0.00,838.000000,,2013-03-02 20:11:00,
2013-03-02 15:42:00,54.0,26.0,-100.00,NNW,336,4.0,9.0,34,0.00,,,0.00,716.000000,,2013-03-02 20:42:00,
2013-03-02 15:53:00,54.0,26.0,-100.00,NNW,336,4.0,9.0,34,0.00,,,0.00,716.000000,,2013-03-02 20:53:00,
2013-03-02 16:02:00,54.0,26.0,-100.00,NNW,336,4.0,9.0,34,0.00,,,0.00,716.000000,,2013-03-02 21:02:00,
2013-03-02 16:12:00,54.0,26.0,-100.00,NNW,336,4.0,9.0,34,0.00,,,0.00,716.000000,,2013-03-02 21:12:00,
2013-03-02 16:42:00,53.0,26.0,-100.00,NW,316,4.0,10.0,35,0.00,,,0.00,525.000000,,2013-03-02 21:42:00,
2013-03-02 16:52:00,53.0,26.0,-100.00,NW,316,4.0,10.0,35,0.00,,,0.00,525.000000,,2013-03-02 21:52:00,
2013-03-02 17:02:00,53.0,26.0,-100.00,NW,316,4.0,10.0,35,0.00,,,0.00,525.000000,,2013-03-02 22:02:00,
2013-03-02 17:11:00,53.0,26.0,-100.00,NW,316,4.0,10.0,35,0.00,,,0.00,525.000000,,2013-03-02 22:11:00,
2013-03-02 17:42:00,52.0,27.0,-100.00,NNW,337,4.0,7.0,37,0.00,,,0.00,396.000000,,2013-03-02 22:42:00,
2013-03-02 17:52:00,52.0,27.0,-100.00,NNW,337,4.0,7.0,37,0.00,,,0.00,396.000000,,2013-03-02 22:52:00,
2013-03-02 18:02:00,52.0,27.0,-100.00,NNW,337,4.0,7.0,37,0.00,,,0.00,396.000000,,2013-03-02 23:02:00,
2013-03-02 18:11:00,52.0,27.0,-100.00,NNW,337,4.0,7.0,37,0.00,,,0.00,396.000000,,2013-03-02 23:11:00,
2013-03-02 18:32:00,45.0,27.0,-100.00,NNW,334,3.0,5.0,48,0.00,,,0.00,104.000000,,2013-03-02 23:32:00,
2013-03-02 18:42:00,45.0,27.0,-100.00,NNW,334,3.0,5.0,48,0.00,,,0.00,104.000000,,2013-03-02 23:42:00,
2013-03-02 18:52:00,45.0,27.0,-100.00,NNW,334,3.0,5.0,48,0.00,,,0.00,104.000000,,2013-03-02 23:52:00,
2013-03-02 19:02:00,45.0,27.0,-100.00,NNW,334,3.0,5.0,48,0.00,,,0.00,104.000000,,2013-03-03 00:02:00,
2013-03-02 19:11:00,45.0,27.0,-100.00,NNW,334,3.0,5.0,48,0.00,,,0.00,104.000000,,2013-03-03 00:11:00,
2013-03-02 19:42:00,41.0,27.0,-100.00,NNW,338,2.0,6.0,58,0.00,,,0.00,6.000000,,2013-03-03 00:42:00,
2013-03-02 19:52:00,41.0,27.0,-100.00,NNW,338,2.0,6.0,58,0.00,,,0.00,6.000000,,2013-03-03 00:52:00,
2013-03-02 20:01:00,41.0,27.0,-100.00,NNW,338,2.0,6.0,58,0.00,,,0.00,6.000000,,2013-03-03 01:01:00,
2013-03-02 20:11:00,41.0,27.0,-100.00,NNW,338,2.0,6.0,58,0.00,,,0.00,6.000000,,2013-03-03 01:11:00,
2013-03-02 20:42:00,38.0,27.0,-100.00,NW,310,1.0,3.0,65,0.00,,,0.00,0.000000,,2013-03-03 01:42:00,
2013-03-02 20:52:00,38.0,27.0,-100.00,NW,310,1.0,3.0,65,0.00,,,0.00,0.000000,,2013-03-03 01:52:00,
2013-03-02 21:01:00,38.0,27.0,-100.00,NW,310,1.0,3.0,65,0.00,,,0.00,0.000000,,2013-03-03 02:01:00,
2013-03-02 21:11:00,38.0,27.0,-100.00,NW,310,1.0,3.0,65,0.00,,,0.00,0.000000,,2013-03-03 02:11:00,
2013-03-02 21:32:00,36.0,27.0,-100.00,WSW,255,0.0,2.0,69,0.00,,,0.00,0.000000,,2013-03-03 02:32:00,
2013-03-02 21:42:00,36.0,27.0,-100.00,WSW,255,0.0,2.0,69,0.00,,,0.00,0.000000,,2013-03-03 02:42:00,
2013-03-02 21:52:00,36.0,27.0,-100.00,WSW,255,0.0,2.0,69,0.00,,,0.00,0.000000,,2013-03-03 02:52:00,
2013-03-02 22:02:00,36.0,27.0,-100.00,WSW,255,0.0,2.0,69,0.00,,,0.00,0.000000,,2013-03-03 03:02:00,
2013-03-02 22:11:00,36.0,27.0,-100.00,WSW,255,0.0,2.0,69,0.00,,,0.00,0.000000,,2013-03-03 03:11:00,
2013-03-02 22:32:00,33.0,28.0,-100.00,West,262,0.0,0.0,81,0.00,,,0.00,0.000000,,2013-03-03 03:32:00,
2013-03-02 22:42:00,33.0,28.0,-100.00,West,262,0.0,0.0,81,0.00,,,0.00,0.000000,,2013-03-03 03:42:00,
2013-03-02 22:52:00,33.0,28.0,-100.00,West,262,0.0,0.0,81,0.00,,,0.00,0.000000,,2013-03-03 03:52:00,
2013-03-02 23:01:00,33.0,28.0,-100.00,West,262,0.0,0.0,81,0.00,,,0.00,0.000000,,2013-03-03 04:01:00,
2013-03-02 23:11:00,33.0,28.0,-100.00,West,262,0.0,0.0,81,0.00,,,0.00,0.000000,,2013-03-03 04:11:00,
2013-03-02 23:32:00,32.0,28.0,-100.00,WNW,289,0.0,3.0,86,0.00,,,0.00,0.000000,,2013-03-03 04:32:00,
2013-03-02 23:42:00,32.0,28.0,-100.00,WNW,289,0.0,3.0,86,0.00,,,0.00,0.000000,,2013-03-03 04:42:00,
2013-03-02 23:52:00,32.0,28.0,-100.00,WNW,289,0.0,3.0,86,0.00,,,0.00,0.000000,,2013-03-03 04:52:00,